This is the latest recevied weather packets stored in our database for station/object KC1DMA. If no packets are shown the sender has not sent any weather packets the latest 10 day(s).
| Time | Temp. | Humidity | Pressure | Rain* | Wind** | Luminosity | Snow |
|---|---|---|---|---|---|---|---|
| 1777775739 | 8.89° C | 52% | 1013.1 hPa | - | - | 0 W/m² | - |
| 1777775437 | 8.89° C | 52% | 1013.1 hPa | - | - | 0 W/m² | - |
| 1777775132 | 8.89° C | 51% | 1013.2 hPa | - | - | 0 W/m² | - |
| 1777774827 | 8.89° C | 52% | 1013.1 hPa | - | - | 0 W/m² | - |
| 1777774524 | 8.89° C | 52% | 1013 hPa | - | - | 0 W/m² | - |
| 1777774221 | 8.89° C | 52% | 1013.1 hPa | - | - | 0 W/m² | - |
| 1777773919 | 9.44° C | 51% | 1013 hPa | - | - | 0 W/m² | - |
| 1777768464 | 11.67° C | 58% | 1012.2 hPa | - | - | 5 W/m² | - |
| 1777767555 | 11.67° C | 58% | 1012.2 hPa | - | - | 5 W/m² | - |
| 1777766646 | 11.67° C | 58% | 1012.1 hPa | - | - | 5 W/m² | - |
| 1777766040 | 11.67° C | 58% | 1012 hPa | - | - | 5 W/m² | - |
| 1777765737 | 11.67° C | 58% | 1012.1 hPa | - | - | 5 W/m² | - |
| 1777760586 | 13.33° C | 56% | 1011.5 hPa | - | - | 117 W/m² | - |
| 1777759977 | 13.33° C | 56% | 1011.4 hPa | - | - | 126 W/m² | - |
| 1777759067 | 12.78° C | 58% | 1011.5 hPa | - | - | 139 W/m² | - |
| 1777758462 | 15° C | 54% | 1011.3 hPa | - | - | 345 W/m² | - |
| 1777757856 | 13.89° C | 59% | 1011.5 hPa | - | - | 192 W/m² | - |
| 1777753009 | 12.22° C | 66% | 1012 hPa | - | - | 328 W/m² | - |
| 1777752706 | 11.67° C | 67% | 1012 hPa | - | - | 271 W/m² | - |
| 1777752401 | 11.67° C | 69% | 1012 hPa | - | - | 205 W/m² | - |
| 1777752098 | 12.22° C | 67% | 1012.1 hPa | - | - | 244 W/m² | - |
| 1777751797 | 12.22° C | 67% | 1012.1 hPa | - | - | 255 W/m² | - |
| 1777751493 | 11.67° C | 68% | 1012.2 hPa | - | - | 242 W/m² | - |
| 1777751190 | 11.67° C | 68% | 1012.3 hPa | - | - | 205 W/m² | - |
| 1777750583 | 12.22° C | 70% | 1012.3 hPa | - | - | 598 W/m² | - |
* Rain since midnight (hover to see other rain measurements)
** Current wind speed in m/s (hover to see current wind gust speed)